Location: Waco, TX
(31.5480°N, 97.1670°W)
Time: 15:37:20
(UTC-05:00)

ISS - Pass Details

Date: 22 August 2019
Orbit: 410 x 421 km, 51.6° (Epoch: 22 August)

Event Time Altitude Azimuth Distance (km) Brightness Sun altitude
Rises 16:05:30 0° 303° (WNW) 2,365 0.4 49.4°
Reaches altitude 10° 16:07:46 10° 292° (WNW) 1,498 -0.3 48.9°
Maximum altitude 16:10:43 28° 231° (SW) 813 -0.9 48.3°
Drops below altitude 10° 16:13:38 10° 170° (S) 1,489 -0.8 47.7°
Sets 16:15:53 0° 158° (SSE) 2,348 0.0 47.3°
